Wetbulb
71.69 73.50 76.33 75.40 74.95 74.73 74.07 73.71 74.11 75.28 75.67 76.04 76.30 76.26 76.45 76.41 76.88 76.85 76.72 76.61 76.63 76.69 77.49 77.05 77.03 77.37 76.69 76.03 76.27 76.29 76.49 77.12 76.99 76.78 76.81 76.42 76.05 77.06 77.09 76.39 77.42 75.11 76.45
73.05 73.69 76.71 76.18 75.42 75.28 75.46 75.05 75.47 75.79 76.13 76.33 76.38 76.38 76.60 76.37 76.65 76.94 76.76 76.57 76.86 77.16 77.08 77.09 77.11 76.87 76.80 76.72 76.86 76.98 76.91 77.26 77.53 76.28 75.63 76.03 76.20 75.36 76.44 77.30 76.96 75.08 76.07
72.99 74.07 74.95 76.96 76.27 75.94 75.46 75.87 76.67 76.13 76.38 76.26 76.16 76.81 76.92 76.64 76.79 76.74 76.52 76.46 76.63 76.89 76.88 77.14 77.03 77.20 76.94 76.68 76.33 76.33 76.58 76.56 76.78 77.03 78.18 74.37 75.21 76.57 75.50 75.50 74.97 74.88 74.85
73.43 73.63 74.12 76.98 77.25 76.62 76.01 76.84 76.51 76.69 76.51 76.53 76.73 76.65 76.86 76.86 76.78 76.53 76.60 76.47 76.36 76.59 76.96 77.07 76.97 77.40 77.25 76.99 76.87 76.62 76.51 76.05 75.89 76.58 75.73 72.97 74.11 76.24 76.20 76.08 76.02 75.93 75.89
73.01 73.85 75.53 77.18 77.18 76.92 76.86 77.08 76.99 76.50 76.58 76.52 76.61 76.67 76.86 76.79 76.77 76.86 76.89 76.88 77.03 77.56 77.20 77.26 77.34 77.51 77.17 76.71 76.29 75.94 75.64 75.77 75.05 74.67 74.45 73.98 74.39 75.83 76.37 76.51 76.39 76.46 76.50
71.79 74.52 76.35 77.48 76.97 76.87 77.02 77.63 76.87 76.64 76.70 76.82 76.71 77.05 77.18 77.54 76.97 77.00 77.11 77.17 76.97 77.00 77.05 77.32 77.41 77.11 76.61 76.16 75.92 75.94 76.58 76.58 77.19 74.01 73.38 74.86 74.56 76.18 76.34 76.09 76.02 75.72 75.50
73.21 74.55 75.78 77.54 77.72 77.16 76.96 76.76 77.47 76.97 76.64 77.52 77.24 77.97 77.03 76.82 76.58 76.31 76.39 76.53 76.60 77.12 77.32 77.52 77.36 76.66 76.32 75.98 75.73 75.60 75.70 76.72 75.75 74.73 73.16 73.07 74.21 76.43 75.34 75.39 74.91 74.13 73.40
73.14 74.05 75.24 77.35 77.73 76.84 76.89 76.92 77.69 77.24 77.35 77.66 77.82 77.67 77.43 77.09 76.44 77.02 76.92 77.31 77.59 77.39 76.84 76.58 76.90 76.49 75.96 74.70 74.12 74.23 75.00 76.64 75.68 74.76 73.74 73.34 74.89 74.85 74.14 73.65 73.26 73.10 72.96
73.01 73.23 74.33 74.32 76.19 76.79 77.23 77.83 77.15 77.07 77.40 77.49 77.30 77.69 77.78 77.13 77.19 77.72 78.19 77.48 77.39 77.31 77.17 77.19 76.44 75.99 76.01 75.35 74.47 74.08 75.01 76.95 73.44 72.33 72.21 72.93 75.89 74.82 73.98 73.70 73.21 73.32 73.48
71.46 72.78 73.82 74.60 74.07 74.68 75.70 76.97 76.49 76.89 76.82 76.99 76.96 77.00 77.56 76.89 77.00 77.00 77.49 77.41 77.17 76.92 76.86 76.89 76.94 76.02 75.42 74.84 74.11 73.70 74.66 75.46 72.90 71.32 71.80 73.77 74.97 73.48 73.31 73.26 73.18 72.99 73.37
71.28 71.52 70.40 73.81 74.39 75.15 76.16 75.89 76.29 76.74 76.85 77.52 76.88 77.02 76.53 74.55 75.61 75.91 76.99 76.73 76.44 76.50 76.53 76.53 76.94 76.57 75.91 75.45 75.53 74.94 74.46 72.78 71.27 70.69 71.23 74.31 74.75 73.44 73.08 72.81 72.82 73.26 73.95
71.16 68.67 67.67 68.96 73.70 74.61 73.43 76.27 76.53 75.92 75.76 76.00 76.09 76.06 75.23 75.88 76.36 74.98 76.09 76.44 76.21 76.16 76.30 76.75 76.78 76.97 76.61 74.07 74.29 75.56 74.18 72.91 70.74 70.21 71.37 74.82 75.07 73.71 73.12 73.08 73.42 74.31 75.32
70.52 70.29 66.86 69.59 73.02 74.10 75.11 75.14 75.66 75.80 75.61 76.49 77.57 76.98 76.53 73.78 73.97 74.13 75.11 74.72 75.00 76.34 74.85 75.96 76.02 75.27 74.61 75.72 74.67 74.70 72.70 72.32 70.36 70.41 72.63 75.01 74.77 74.03 73.88 74.39 75.17 75.83 76.55
71.01 71.53 71.76 72.40 71.18 75.63 75.76 74.42 75.18 75.02 74.83 74.58 76.38 77.54 77.33 74.98 73.90 72.65 74.06 75.08 76.00 75.33 76.19 76.41 74.71 75.78 75.92 75.82 72.19 71.88 71.59 70.68 70.83 70.54 72.46 75.24 75.11 74.81 75.28 75.64 75.94 76.18 76.96
70.08 71.63 71.92 69.42 66.49 76.00 77.03 74.08 73.95 74.53 74.09 74.07 75.35 75.40 76.75 76.62 76.33 75.76 75.89 73.95 76.02 74.58 75.75 74.32 76.77 74.96 75.59 74.92 73.72 73.15 71.24 72.02 71.10 70.91 70.98 75.66 75.34 75.40 75.42 76.00 76.14 76.36 77.26
71.40 71.39 72.40 71.48 72.73 75.03 74.24 70.28 71.75 72.69 73.20 73.79 74.86 74.01 78.27 73.36 76.60 76.59 76.29 73.21 73.08 77.27 73.57 75.74 74.41 75.27 75.32 73.96 74.43 73.10 72.66 73.17 73.81 72.02 71.53 72.93 76.14 76.37 76.88 77.13 77.23 77.20 75.97
71.11 71.58 72.01 72.92 73.20 74.18 72.29 70.88 70.25 74.14 73.79 73.52 75.21 78.10 74.45 75.88 73.83 79.29 70.90 76.39 77.44 77.86 77.32 77.03 76.98 75.73 73.58 73.58 74.27 74.11 73.62 73.54 74.00 74.54 72.65 72.02 72.86 76.57 77.07 77.61 77.38 77.16 76.23
71.37 70.75 72.34 72.24 72.68 74.66 75.41 75.69 73.66 75.12 75.88 74.33 75.12 76.99 76.47 74.11 79.93 76.02 74.36 74.16 74.24 77.41 77.37 76.24 74.98 74.58 72.51 72.76 73.16 73.01 73.03 73.79 74.35 74.59 74.64 74.56 74.00 73.35 75.88 77.20 77.14 76.89 76.38
70.71 73.26 73.26 72.90 72.26 74.11 75.61 76.42 76.72 77.90 77.50 76.32 74.68 75.72 77.81 77.85 78.82 79.95 74.57 78.10 79.10 77.55 74.20 76.21 75.70 75.78 73.31 72.89 73.10 73.39 73.84 73.76 74.68 73.53 74.93 74.73 75.45 74.75 75.04 76.08 76.58 76.08 75.29
73.22 73.88 73.80 73.00 72.77 75.14 75.36 78.18 76.44 76.41 74.07 78.22 76.93 74.18 78.91 77.53 79.15 75.38 75.86 77.97 71.00 73.30 74.85 74.84 78.40 77.30 75.49 73.70 71.63 72.15 73.18 73.61 74.50 74.02 73.79 74.47 76.18 75.65 76.86 77.85 77.11 75.29 76.33
72.88 71.52 73.01 71.64 73.77 74.28 74.29 73.78 73.30 72.64 76.17 77.17 75.15 78.21 72.45 72.23 77.09 76.51 76.72 71.15 67.42 67.24 69.52 78.15 76.56 76.39 75.74 75.14 74.95 71.94 73.41 73.63 73.55 73.35 73.56 74.26 75.83 75.42 75.73 76.49 78.06 77.84 77.32
72.48 72.66 73.97 74.50 75.74 74.14 75.78 75.21 74.14 74.16 72.85 76.63 76.90 77.67 73.28 72.40 79.04 77.38 76.78 72.54 68.21 66.89 69.50 78.74 78.45 76.87 75.43 75.42 73.99 73.63 69.62 71.07 71.85 71.37 72.07 72.84 75.15 74.61 75.81 76.81 78.28 77.73 77.07
72.49 73.72 74.26 75.02 74.84 74.85 76.00 75.61 76.97 76.64 77.11 74.16 75.28 75.55 75.89 76.89 77.58 79.09 77.61 76.93 73.95 70.82 68.58 76.02 76.68 71.29 70.82 75.47 76.56 74.19 70.16 65.20 66.64 67.35 65.59 67.60 67.60 75.21 75.18 76.02 76.07 77.65 77.19
72.67 73.78 75.06 74.81 75.68 75.65 75.75 73.52 75.41 74.12 72.30 72.77 74.45 75.01 76.32 77.78 77.43 77.79 79.09 76.98 70.15 70.06 68.13 72.12 74.75 65.16 64.89 71.27 75.53 74.73 72.59 65.31 65.22 60.53 66.69 64.25 66.36 69.33 75.81 74.55 75.41 76.13 76.39
73.26 73.39 74.73 74.90 75.62 75.46 77.87 74.96 75.56 74.62 73.78 73.88 74.78 76.43 74.52 78.37 78.11 77.49 78.15 76.30 74.97 69.87 69.03 70.69 77.27 76.04 76.32 73.40 75.99 72.55 74.37 72.60 69.95 64.17 63.72 64.48 69.15 71.56 75.12 74.86 74.41 76.22 76.58
71.76 73.64 74.76 74.58 74.76 76.75 76.63 75.26 75.81 75.95 75.84 73.44 73.03 74.95 74.98 75.78 76.68 78.60 78.51 78.21 77.67 78.14 77.33 77.44 79.08 78.18 78.95 78.53 78.19 77.12 74.44 72.76 71.62 70.74 69.85 67.87 66.79 70.47 67.83 68.65 68.36 73.52 76.42
MSLP
1013.31 1013.97 1014.38 1014.67 1014.86 1015.12 1015.40 1015.80 1015.89 1016.26 1016.34 1016.36 1016.31 1016.37 1016.43 1016.52 1016.45 1016.60 1016.64 1016.76 1016.76 1016.88 1016.66 1016.88 1016.93 1016.88 1017.03 1017.22 1017.21 1017.28 1017.34 1017.34 1017.44 1017.64 1017.85 1017.99 1018.12 1018.15 1018.09 1018.26 1017.98 1018.38 1018.55
1012.84 1013.74 1014.30 1014.67 1015.00 1015.18 1015.40 1015.84 1016.11 1016.37 1016.26 1016.47 1016.51 1016.55 1016.61 1016.70 1016.63 1016.73 1016.86 1016.95 1016.94 1016.87 1017.08 1017.03 1017.19 1017.19 1017.38 1017.46 1017.36 1017.49 1017.47 1017.58 1017.63 1017.74 1017.92 1018.13 1018.40 1018.48 1018.53 1018.44 1018.50 1018.93 1018.96
1013.11 1014.14 1014.50 1014.76 1014.96 1015.29 1015.51 1015.83 1015.97 1016.40 1016.42 1016.63 1016.73 1016.67 1016.75 1016.77 1016.82 1016.94 1017.13 1017.08 1017.23 1017.12 1017.22 1017.28 1017.41 1017.41 1017.63 1017.58 1017.50 1017.68 1017.80 1018.05 1018.05 1018.09 1017.73 1018.17 1018.78 1018.82 1018.82 1018.92 1019.15 1019.22 1019.28
1012.80 1014.11 1014.75 1015.18 1015.14 1015.44 1015.73 1015.88 1016.27 1016.38 1016.64 1016.77 1016.81 1016.90 1016.97 1016.96 1017.06 1017.19 1017.23 1017.45 1017.54 1017.50 1017.49 1017.55 1017.65 1017.72 1017.84 1017.81 1017.78 1018.02 1018.22 1018.39 1018.15 1018.23 1017.87 1018.13 1018.71 1019.04 1019.08 1019.23 1019.32 1019.33 1019.37
1012.99 1013.99 1015.25 1015.38 1015.42 1015.51 1015.81 1016.13 1016.39 1016.57 1016.81 1016.99 1017.18 1017.25 1017.23 1017.23 1017.19 1017.37 1017.45 1017.60 1017.57 1017.59 1017.79 1017.81 1017.81 1017.97 1017.93 1017.87 1018.04 1018.16 1018.37 1018.61 1017.90 1018.16 1017.95 1018.39 1018.94 1019.30 1019.37 1019.44 1019.48 1019.46 1019.44
1013.94 1014.33 1015.31 1015.36 1015.51 1015.62 1015.80 1016.13 1016.49 1016.79 1017.04 1017.21 1017.38 1017.41 1017.43 1017.40 1017.35 1017.57 1017.65 1017.78 1017.89 1018.02 1018.11 1018.01 1017.99 1018.20 1018.17 1018.12 1018.27 1018.14 1017.96 1018.12 1018.10 1017.95 1018.28 1018.79 1019.20 1019.41 1019.49 1019.63 1019.69 1019.82 1019.86
1013.45 1014.36 1015.37 1015.44 1015.55 1015.69 1015.91 1016.24 1016.54 1016.87 1017.19 1017.28 1017.52 1017.50 1017.59 1017.73 1017.80 1017.91 1017.92 1018.16 1018.28 1018.33 1018.27 1018.26 1018.27 1018.50 1018.50 1018.38 1018.47 1018.30 1018.15 1018.23 1017.78 1017.99 1018.58 1019.21 1019.61 1019.67 1019.79 1019.90 1019.97 1020.01 1020.03
1013.11 1014.53 1015.35 1015.78 1015.85 1015.95 1016.09 1016.36 1016.70 1016.99 1017.20 1017.44 1017.57 1017.63 1017.69 1017.88 1018.03 1018.07 1018.21 1018.32 1018.28 1018.47 1018.45 1018.51 1018.57 1018.68 1018.62 1018.55 1018.47 1018.47 1018.38 1018.20 1017.84 1018.22 1018.85 1019.52 1019.84 1019.92 1020.02 1020.12 1020.07 1020.01 1020.02
1012.63 1014.08 1015.38 1016.01 1016.15 1016.23 1016.29 1016.54 1016.80 1017.02 1017.22 1017.45 1017.60 1017.64 1017.78 1018.03 1018.19 1018.39 1018.46 1018.46 1018.45 1018.52 1018.58 1018.62 1018.70 1018.75 1018.76 1018.67 1018.52 1018.45 1018.30 1018.16 1017.88 1018.41 1019.01 1019.75 1020.05 1020.08 1020.16 1020.10 1020.08 1020.04 1020.02
1012.37 1013.16 1014.45 1015.51 1016.33 1016.60 1016.65 1016.85 1016.87 1016.98 1017.20 1017.42 1017.65 1017.74 1017.89 1018.15 1018.35 1018.55 1018.62 1018.69 1018.69 1018.72 1018.70 1018.71 1018.85 1018.83 1018.79 1018.74 1018.70 1018.51 1018.30 1018.26 1017.86 1018.43 1019.31 1020.01 1020.08 1020.11 1020.09 1020.03 1020.01 1020.02 1019.97
1013.35 1013.87 1014.87 1014.58 1015.69 1016.79 1017.04 1017.15 1017.06 1017.02 1017.15 1017.31 1017.57 1017.85 1018.00 1017.89 1018.10 1018.53 1018.71 1018.77 1018.77 1018.73 1018.67 1018.87 1018.97 1018.93 1018.92 1018.82 1018.62 1018.57 1018.60 1018.27 1017.86 1018.65 1019.68 1020.04 1020.03 1020.01 1020.00 1019.99 1020.00 1019.90 1019.86
1013.56 1014.90 1015.46 1015.77 1015.69 1016.65 1016.98 1017.25 1017.23 1017.15 1017.06 1016.97 1017.04 1017.59 1017.79 1017.71 1017.82 1018.22 1018.69 1018.76 1018.79 1018.68 1018.62 1018.72 1018.82 1018.84 1018.89 1018.59 1018.57 1018.57 1018.44 1017.60 1017.95 1018.90 1019.73 1019.94 1019.92 1019.92 1019.97 1019.95 1019.86 1019.79 1019.66
1013.39 1015.19 1015.16 1015.28 1015.29 1015.87 1016.85 1017.04 1016.99 1016.96 1016.92 1016.83 1016.77 1017.07 1017.25 1017.47 1017.74 1018.03 1018.45 1018.49 1018.54 1018.49 1018.41 1018.35 1018.56 1018.59 1018.23 1018.08 1017.94 1017.91 1017.43 1017.34 1018.08 1018.85 1019.68 1019.91 1019.85 1019.83 1019.81 1019.77 1019.68 1019.51 1019.40
1013.47 1014.18 1015.24 1015.12 1016.12 1016.04 1016.25 1016.75 1016.74 1016.73 1016.76 1016.83 1016.89 1016.91 1017.34 1017.55 1017.72 1017.74 1017.98 1017.83 1017.81 1017.86 1017.74 1017.68 1017.60 1017.44 1017.31 1017.16 1016.96 1016.94 1016.99 1017.17 1018.00 1018.89 1019.61 1019.73 1019.63 1019.65 1019.55 1019.38 1019.26 1019.22 1019.10
1013.58 1014.05 1015.38 1015.93 1016.73 1016.53 1016.39 1016.67 1016.45 1016.75 1016.63 1016.84 1017.06 1017.34 1017.21 1017.12 1017.36 1017.12 1017.54 1017.65 1017.53 1017.22 1017.29 1017.35 1017.32 1017.32 1017.23 1017.11 1016.97 1016.79 1016.85 1017.08 1017.66 1018.52 1019.14 1019.29 1019.30 1019.23 1019.14 1019.08 1019.01 1018.97 1018.83
1013.61 1014.78 1015.46 1016.40 1016.63 1016.59 1017.13 1016.67 1016.60 1016.97 1016.58 1016.68 1016.87 1017.50 1017.43 1017.68 1017.48 1017.31 1017.43 1017.46 1017.19 1017.22 1017.40 1017.35 1017.42 1017.17 1017.20 1017.21 1017.06 1017.12 1017.28 1017.22 1017.54 1017.96 1018.51 1018.84 1018.81 1018.70 1018.73 1018.71 1018.62 1018.66 1018.54
1013.75 1014.72 1015.02 1015.49 1015.90 1017.04 1017.86 1017.58 1016.90 1016.20 1016.07 1016.31 1016.84 1017.01 1017.30 1017.74 1017.74 1017.48 1017.80 1017.19 1017.25 1016.93 1016.88 1016.81 1016.78 1016.40 1016.83 1016.98 1017.34 1017.13 1017.37 1017.56 1017.59 1017.60 1017.97 1018.22 1018.26 1018.32 1018.35 1018.35 1018.19 1018.17 1018.17
1013.16 1014.35 1014.71 1014.54 1015.62 1016.51 1016.66 1016.32 1016.47 1015.80 1015.92 1016.40 1016.70 1016.95 1017.48 1017.69 1017.13 1017.27 1017.43 1017.81 1017.76 1017.24 1017.15 1016.96 1016.83 1016.62 1016.64 1016.93 1017.19 1017.26 1017.43 1017.65 1017.86 1017.72 1017.53 1017.79 1017.92 1017.94 1018.08 1018.01 1017.73 1017.75 1017.86
1013.04 1013.60 1014.28 1015.15 1015.60 1016.04 1016.14 1016.00 1015.89 1015.78 1015.91 1016.00 1016.38 1016.91 1017.35 1017.45 1017.44 1017.77 1018.35 1017.98 1017.66 1017.84 1017.71 1017.29 1016.81 1016.65 1016.85 1016.81 1016.83 1017.12 1017.30 1017.56 1017.56 1017.35 1017.54 1017.56 1017.47 1017.19 1017.61 1017.34 1017.16 1017.82 1017.91
1012.84 1013.65 1014.34 1015.13 1015.58 1015.86 1016.02 1015.95 1015.87 1016.04 1016.03 1016.02 1016.48 1017.27 1017.44 1017.83 1018.07 1018.61 1018.70 1017.89 1018.89 1018.70 1018.87 1018.02 1017.67 1017.11 1017.25 1017.24 1016.90 1016.90 1016.86 1017.16 1017.02 1017.38 1017.26 1017.06 1017.15 1016.78 1016.87 1016.74 1017.14 1017.92 1018.45
1013.10 1014.12 1014.69 1015.11 1015.52 1015.81 1016.05 1016.09 1016.30 1016.30 1016.25 1016.44 1017.40 1017.37 1017.85 1018.22 1018.44 1018.71 1018.40 1018.92 1020.02 1020.62 1020.25 1018.63 1018.23 1017.63 1017.52 1017.20 1017.52 1017.43 1017.45 1017.46 1017.66 1017.65 1017.20 1016.86 1016.89 1016.59 1016.48 1016.75 1017.34 1018.01 1018.63
1012.84 1013.92 1014.94 1015.24 1015.63 1015.88 1016.01 1015.97 1016.13 1016.18 1016.21 1016.56 1017.25 1017.20 1017.61 1018.36 1018.28 1018.69 1018.41 1019.44 1021.34 1022.07 1021.18 1019.13 1018.71 1017.96 1017.24 1017.26 1017.96 1018.22 1018.18 1018.19 1018.03 1019.07 1019.04 1018.39 1016.85 1016.42 1016.27 1016.55 1017.22 1017.20 1018.34
1012.84 1013.56 1014.50 1015.20 1015.63 1016.00 1015.99 1016.02 1015.98 1016.03 1016.21 1016.94 1017.56 1017.68 1017.47 1017.63 1018.36 1018.79 1018.41 1019.16 1020.89 1021.30 1020.57 1019.88 1018.75 1018.73 1018.36 1017.75 1017.91 1018.56 1018.98 1020.53 1020.92 1020.77 1020.85 1018.94 1018.23 1016.64 1016.25 1016.26 1016.73 1017.21 1017.83
1012.42 1013.34 1014.20 1015.01 1015.60 1015.93 1015.98 1015.96 1016.08 1016.14 1016.40 1016.84 1017.32 1017.21 1017.23 1017.10 1017.58 1018.08 1018.80 1018.90 1020.33 1021.12 1021.21 1020.29 1019.18 1018.46 1018.32 1018.76 1017.89 1018.07 1018.35 1019.79 1022.32 1023.59 1020.85 1018.50 1019.12 1019.63 1016.60 1016.46 1016.29 1016.68 1017.77
1011.73 1012.61 1013.77 1014.71 1015.40 1015.69 1015.71 1016.00 1016.09 1016.19 1016.26 1016.51 1016.59 1016.80 1016.97 1016.89 1016.67 1017.15 1017.98 1018.70 1019.51 1019.67 1019.95 1019.80 1018.61 1018.14 1018.62 1018.86 1018.28 1018.43 1018.62 1018.97 1019.65 1020.63 1020.74 1020.02 1019.49 1018.34 1017.12 1017.31 1016.92 1016.53 1017.03
1010.95 1011.84 1013.05 1014.41 1015.11 1015.44 1015.86 1016.01 1016.14 1016.11 1016.45 1016.66 1016.75 1016.79 1016.81 1016.91 1016.72 1016.60 1017.09 1017.97 1018.41 1018.48 1019.14 1018.82 1017.71 1017.71 1018.03 1018.03 1018.23 1018.46 1018.39 1018.62 1018.31 1018.01 1018.36 1018.83 1018.98 1019.40 1019.78 1019.95 1019.55 1018.90 1017.43
Wind_Speed
14 14 13 15 13 13 15 11 9 9 10 11 11 12 13 12 14 13 13 13 14 13 13 15 13 14 14 14 14 14 14 15 16 17 16 15 14 14 9 11 17 13 14
18 15 14 14 14 13 15 12 10 12 13 12 13 12 13 12 14 13 13 12 12 14 12 15 15 15 14 13 12 12 12 12 15 18 18 16 15 15 14 18 16 11 12
19 15 14 13 15 15 15 12 14 12 14 13 13 14 13 13 13 13 13 13 13 13 13 14 14 15 13 11 11 10 11 10 11 14 18 11 10 14 15 16 13 12 11
20 16 15 14 16 17 16 14 14 14 14 13 13 13 13 14 13 13 14 13 13 14 15 16 16 16 15 11 10 9 10 9 6 9 2 12 11 13 14 13 11 11 12
13 18 14 16 16 17 16 15 14 14 14 13 13 13 14 14 14 14 14 13 14 14 14 15 16 16 14 9 7 5 5 10 10 2 9 10 7 9 9 11 12 11 11
9 17 15 17 17 17 16 14 15 14 13 14 13 13 14 14 15 13 14 14 14 15 14 15 16 15 13 9 7 5 9 7 4 10 12 12 8 10 11 11 11 11 10
20 17 14 16 16 16 16 16 14 15 13 12 12 13 14 15 14 14 14 13 13 14 15 14 15 14 11 7 6 5 9 10 2 10 11 9 6 9 10 10 9 8 7
21 19 14 14 17 17 16 16 15 14 14 13 13 13 13 14 13 13 14 13 14 14 15 14 13 12 10 4 3 3 5 7 13 8 9 8 7 9 9 8 8 7 6
22 19 14 14 14 16 15 16 16 14 14 12 13 13 13 12 13 13 12 13 13 12 12 12 12 11 8 3 1 3 5 6 6 7 11 6 7 9 8 7 6 5 4
8 20 17 14 12 11 12 16 15 14 14 13 13 13 14 14 13 13 11 10 11 10 9 9 9 9 9 7 5 5 8 11 2 10 9 5 7 7 6 5 4 3 1
9 16 11 17 13 9 10 11 13 15 14 12 10 10 11 8 9 10 10 9 8 8 7 8 9 7 7 8 10 8 7 5 5 9 6 7 6 6 5 3 1 0 2
19 16 2 10 14 12 10 8 8 9 7 5 8 9 5 4 6 9 9 9 8 8 8 9 10 9 8 5 5 8 5 5 9 9 5 8 6 5 3 1 1 2 3
12 19 17 16 10 13 10 8 5 5 4 2 1 3 5 6 6 6 4 5 6 9 5 7 7 7 10 7 3 7 5 4 7 6 7 8 6 4 3 2 3 4 5
14 10 15 12 8 6 4 4 5 5 7 5 3 4 3 3 5 4 6 7 6 5 4 4 2 4 2 5 7 7 7 6 7 5 6 8 7 6 6 5 6 5 6
16 16 18 13 10 5 4 4 7 6 5 7 4 5 3 3 3 3 5 3 3 4 5 3 4 4 2 1 3 1 6 5 12 6 5 11 10 10 9 8 7 5 6
15 14 8 18 14 8 6 6 3 4 7 7 5 7 2 4 2 2 4 6 1 4 4 6 4 4 4 4 1 4 5 2 7 9 6 7 13 13 11 10 8 6 5
14 15 10 15 11 14 7 7 7 7 6 6 7 3 5 2 5 2 0 2 1 3 3 2 4 2 5 5 4 3 5 4 2 3 8 7 7 14 12 11 11 8 6
14 17 16 12 13 9 8 8 8 3 3 8 6 3 9 7 1 1 3 1 6 2 4 4 4 4 5 6 5 4 5 5 4 4 3 2 5 7 10 13 13 8 5
7 9 11 13 10 9 7 4 5 3 3 4 7 5 3 5 3 2 3 3 3 4 4 4 3 2 3 4 5 4 5 5 6 7 5 5 3 5 5 11 14 6 3
14 9 7 7 8 8 6 3 1 1 1 2 3 4 3 6 1 4 1 4 11 7 8 5 4 4 2 2 1 6 4 5 4 4 5 6 5 6 4 3 3 4 5
14 10 5 7 7 7 5 4 3 4 2 2 6 7 9 9 8 7 5 7 11 10 13 4 2 2 4 3 3 2 2 2 3 4 3 4 5 0 5 1 4 5 4
17 17 11 9 8 5 4 4 4 5 3 3 6 4 14 14 2 4 1 5 16 13 18 1 4 3 2 1 2 4 1 1 1 9 13 12 1 3 2 4 7 2 10
15 14 12 9 8 8 8 4 3 3 3 3 4 5 5 7 6 3 2 6 7 3 7 12 4 10 4 3 2 2 4 4 5 13 10 10 13 3 3 4 6 6 10
18 16 15 13 9 7 7 5 6 3 4 3 5 4 6 5 5 5 3 4 10 1 4 10 7 6 3 8 3 3 4 8 7 10 4 11 9 17 5 5 4 6 10
22 18 16 15 12 9 5 2 4 4 5 7 6 8 5 5 6 4 6 4 9 6 4 12 4 6 4 4 3 5 1 5 13 5 5 5 4 13 3 8 10 4 8
14 19 17 15 10 7 7 6 7 6 1 4 5 4 4 4 4 4 4 5 4 3 5 5 3 4 5 5 3 5 2 1 1 2 2 5 5 10 10 6 9 11 7
Wind_Direction
119 128 130 127 118 121 110 118 126 126 119 113 102 95 93 89 91 94 99 101 103 106 108 105 102 103 101 100 99 99 99 100 99 94 90 87 76 66 89 127 101 92 89
124 122 128 125 125 120 115 120 128 115 108 107 101 98 96 97 98 100 94 99 103 111 117 114 112 103 103 103 105 106 111 117 120 115 104 90 82 80 78 78 82 94 93
112 124 124 124 126 126 119 129 113 112 107 105 107 101 97 97 96 96 95 96 99 102 108 103 104 105 108 102 107 110 109 112 114 135 114 95 83 88 88 86 95 95 93
127 120 123 126 121 122 129 127 117 115 105 102 98 101 96 95 95 100 96 100 104 100 101 104 104 108 104 109 115 117 107 105 156 193 2 92 89 87 90 95 98 105 101
80 109 124 126 127 126 121 123 115 110 109 103 102 100 104 100 99 94 93 94 89 97 99 107 107 107 106 106 95 91 109 116 247 249 93 99 93 92 95 112 101 83 89
178 117 132 130 130 122 117 127 116 111 108 104 104 102 103 100 97 94 90 89 93 98 95 96 96 96 100 99 76 22 3 0 339 117 86 74 74 96 87 84 83 81 77
121 124 130 127 128 126 121 116 114 113 115 116 112 107 104 101 99 96 95 93 100 102 99 95 98 99 97 86 68 15 355 12 118 93 97 90 89 91 91 84 83 80 82
121 121 128 123 124 122 125 124 123 120 115 111 107 108 104 105 106 102 97 91 96 99 96 96 98 100 98 87 59 356 316 339 97 101 86 88 95 95 91 88 86 91 91
125 122 124 130 123 126 131 126 123 123 117 119 117 115 111 112 108 102 99 93 91 98 98 103 104 113 120 140 276 291 291 306 138 124 116 101 96 98 102 98 96 90 78
119 127 131 136 137 133 135 125 129 129 127 129 133 134 135 128 123 119 110 100 106 103 108 121 130 134 151 166 211 266 303 314 178 102 85 99 110 114 114 113 103 86 57
131 80 37 133 121 105 128 133 134 133 139 139 147 162 162 137 141 138 100 118 119 134 158 142 141 166 188 198 191 219 254 259 128 94 99 120 131 127 123 116 102 295 312
106 77 124 259 130 158 132 143 140 146 159 184 177 164 210 101 125 122 140 154 161 183 198 181 172 183 206 189 214 213 232 218 99 105 115 146 148 135 131 155 263 297 303
133 144 189 207 155 152 143 156 164 157 135 114 118 111 155 128 144 154 153 179 184 204 210 201 190 202 221 230 225 199 194 161 103 104 138 159 159 163 181 236 282 292 301
110 128 111 64 18 92 136 155 158 162 160 162 91 138 151 189 193 149 181 201 184 176 197 216 194 211 95 230 164 181 192 124 117 120 149 172 182 194 214 233 248 274 300
139 150 108 118 196 220 194 199 166 225 127 117 169 54 305 57 41 131 79 326 275 193 176 208 137 154 196 142 91 293 73 90 127 136 150 183 199 209 219 234 252 273 299
136 97 137 153 191 195 53 31 314 321 139 164 137 165 125 33 356 276 166 219 90 59 297 99 253 218 172 89 339 112 113 57 118 141 152 187 206 214 219 229 241 250 274
131 140 191 151 169 104 220 170 270 223 165 142 112 147 169 132 217 65 235 247 343 122 132 180 241 232 143 132 96 201 113 136 52 144 168 176 204 222 223 223 228 224 232
156 150 206 149 149 173 169 176 208 186 159 124 147 152 108 268 166 276 296 279 277 202 194 231 218 235 139 155 187 178 163 133 147 247 263 129 183 200 221 228 230 221 218
142 143 102 140 154 172 140 192 219 156 109 144 159 162 149 189 223 311 327 270 342 330 312 263 221 152 151 163 179 148 167 147 196 204 148 226 187 265 169 207 226 214 198
127 118 115 136 139 140 154 209 124 186 205 166 111 102 96 330 6 47 322 43 33 5 313 334 2 28 279 212 222 160 188 171 199 159 200 212 172 232 176 144 227 174 206
131 91 120 98 115 143 168 199 118 182 239 181 98 118 61 327 291 144 255 70 57 2 301 326 351 330 318 37 334 72 34 25 140 295 252 262 177 98 121 164 85 116 149
145 152 156 158 146 164 223 182 188 191 199 166 107 133 144 220 261 241 89 78 112 241 268 314 278 303 262 114 2 319 230 302 283 12 0 4 11 271 172 155 125 132 121
153 147 151 154 181 179 204 225 175 195 148 90 134 152 177 224 199 188 29 108 127 137 342 298 75 36 19 346 101 260 48 44 351 337 335 353 320 266 69 312 153 151 81
158 156 153 161 187 212 228 181 187 180 165 164 181 195 167 200 224 166 168 107 111 215 215 285 98 59 43 276 321 210 138 143 128 254 339 315 346 325 116 325 83 127 121
155 161 158 163 185 202 197 125 167 206 191 177 203 143 143 197 237 218 158 151 149 197 137 250 318 125 205 292 26 356 121 178 170 138 225 320 141 245 83 31 348 100 83
158 157 158 160 179 192 193 173 234 232 58 323 131 164 171 180 215 254 183 162 182 228 190 246 50 342 350 353 357 320 337 40 299 327 87 185 215 46 29 2 349 328 103